Regional Weather Roundup
Issued by NWS Albany, NY

Home | Current Version | Previous Version | Graphics & Text | Print | Product List | Glossary On
Versions: 1 2 3 4 5 6 7 8 9 10 11 12 13 14 15 16 17 18 19 20 21 22 23 24 25 26 27 28
000
ASUS41 KALY 222310
RWRALY

NEW YORK STATE HOURLY WEATHER ROUNDUP
NATIONAL WEATHER SERVICE ALBANY NY
700 PM EDT WED MAR 22 2017

NOTE: "FAIR" INDICATES FEW OR NO CLOUDS BELOW 12,000 FEET WITH NO
SIGNIFICANT WEATHER AND/OR NO OBSTRUCTIONS TO VISIBILITY.

NYZ032-033-038>043-046>054-057>066-NYZ062>081-082-084-230000-
EAST


CITY           SKY/WX    TMP DP  RH WIND       PRES   REMARKS
ALBANY         PTCLDY    24  -6  26 NW18G28   30.34R WCI  10
GLENS FALLS    CLEAR     21  -7  28 N9        30.34R WCI  11
POUGHKEEPSIE   CLEAR     24  -2  32 NW15G25   30.32R WCI  11
NEWBURGH       CLEAR     25   1  36 NW18G25   30.31R WCI  11
MONTGOMERY     CLEAR     25  -5  26 N8G24     30.32R WCI  16
WHITE PLAINS   CLEAR     27  -4  26 NW17      30.27R WCI  14
ISLIP          CLEAR     29  -1  27 N21G29    30.26R WCI  16
NEW YORK CITY  CLEAR     33   1  25 NW18G32   30.29R WCI  22
CENTRAL PARK   CLEAR     30  -5  21 NW12G32   30.32R WCI  20
$$

NYZ005>009-017-018-044>046-055-056-230000-
CENTRAL


CITY           SKY/WX    TMP DP  RH WIND       PRES   REMARKS
FULTON         CLEAR     22   4  46 NW13      30.45R WCI  10
SYRACUSE       PTCLDY    21   4  47 W16G22    30.45R WCI   7
ROME           CLEAR     20   0  41 W20       30.43R WCI   4
ELMIRA         CLEAR     25   0  33 VRB7      30.42R WCI  17
BINGHAMTON     CLEAR     16   1  51 NW13G18   30.34R WCI   2
MONTICELLO       N/A     19  -4  35 NW16      30.29R VSB 1/2 WCI   5
$$

NYZ026>034-041>043-087-230000-
NORTH


CITY           SKY/WX    TMP DP  RH WIND       PRES   REMARKS
WATERTOWN      CLEAR     23  -1  35 W8        30.44S WCI  14
FORT DRUM      NOT AVBL
MASSENA        CLEAR     18  -2  41 W15       30.44R WCI   4
SARANAC LAKE   CLEAR     10  -7  46 NW9G16    30.25R WCI  -3
PLATTSBURGH    CLEAR     17  -6  35 NW9G24    30.36R WCI   6
$$

NYZ001>004-010>016-019>021-085-230000-
WEST


CITY           SKY/WX    TMP DP  RH WIND       PRES   REMARKS
NIAGARA FALLS  CLEAR     28   5  37 NW10      30.50S WCI  19
BUFFALO        PTCLDY    26   5  40 NW12      30.50R WCI  16
DUNKIRK        CLEAR     26   9  48 W9        30.52R WCI  17
JAMESTOWN      CLEAR     21   3  45 NW9       30.43R WCI  11
WELLSVILLE     CLEAR     21   0  39 NW20      30.37R WCI   6
ROCHESTER      PTCLDY    25   4  40 NW12      30.48R WCI  14
PENN YAN       PTCLDY    22   2  42 NW10G20   30.44R WCI  11
$$

             KEY
       WCI = WIND CHILL INDEX
       VSB = VISIBILITY
       HX  = HEAT INDEX
$$




USA.gov is the U.S. government's official web portal to all federal, state and local government web resources and services.